カタログに戻る

STARLINK-33972

運用中通信VLEO
NORAD 63893·PAYLOAD·🇺🇸 United States

打ち上げ May 10, 2025 から Cape Canaveral Space Force Station

Loading…

次のパス (今後24時間)

TLE

最新Source: CelesTrak SupGP

元期: Sep 15, 2026, 03:29 UTC

1 63893C 25095D   26258.14562500 -.00028036  00000+0 -10156-2 0  2589
2 63893  42.9997 186.3357 0001200 278.4474  18.7307 15.27587387    13

AllMySatでSTARLINK-33972をリアルタイム追跡

Download on the App Store